Regional Weather Roundup
Issued by NWS

Home | Current Version | Previous Version | Text Only | Print | Product List | Glossary On
Versions: 1 2 3 4 5 6 7 8 9 10 11 12 13 14 15 16 17 18 19 20 21 22 23 24 25 26 27 28 29 30 31 32 33 34 35 36 37 38 39 40 41 42 43 44 45 46 47 48 49 50
673
ASUS46 KPQR 030110
RWROR

OREGON REGIONAL WEATHER ROUNDUP
NATIONAL WEATHER SERVICE PORTLAND OR
500 PM PST FRI DEC 02 2016

NOTE: "FAIR" INDICATES FEW OR NO CLOUDS BELOW 12,000 FEET WITH
NO SIGNIFICANT WEATHER AND/OR OBSTRUCTIONS TO VISIBILITY.

ORZ001>013-030200-
NORTHWEST OREGON


CITY           SKY/WX    TMP DP  RH WIND       PRES   REMARKS
ASTORIA        LGT RAIN  52  46  80 SW18G31   30.17R
NEWPORT        CLOUDY    46  45  93 S9        30.28F
PORTLAND       CLOUDY    47  40  76 SE5       30.26F
VANCOUVER WA   CLOUDY    47  39  74 SE8       30.25F
SCAPPOOSE      CLOUDY    45  39  79 S6        30.22F
HILLSBORO      CLOUDY    45  40  82 S6        30.24F
AURORA         CLOUDY    47  39  74 SW3       30.26F
MCMINNVILLE    CLOUDY    46  39  76 S8        30.25F
SALEM          CLOUDY    47  38  71 S14       30.25F
CORVALLIS        N/A     45  39  81 S13       30.30F
EUGENE         CLOUDY    45  40  82 S6        30.32S
$$

ORZ021-028-030200-
SOUTHWEST OREGON


CITY           SKY/WX    TMP DP  RH WIND       PRES   REMARKS
NORTH BEND     CLOUDY    48  45  87 S7        30.33S
BROOKINGS      CLOUDY    50  44  80 CALM      30.35S
ROSEBURG       CLOUDY    47  41  80 CALM      30.34F
SEXTON SUMMIT  CLOUDY    35  27  72 SE5       30.29R WCI  31
MEDFORD        CLOUDY    44  35  70 W3        30.35F
$$

ORZ014>016-041-030200-
COLUMBIA GORGE


CITY           SKY/WX    TMP DP  RH WIND       PRES   REMARKS
TROUTDALE      CLOUDY    48  41  76 S3        30.26F
THE DALLES     MOCLDY    44  38  79 CALM      30.21F
$$

ORZ029>031-041-044-049-050-061>064-502-503-505>511-030200-
EASTERN OREGON


CITY           SKY/WX    TMP DP  RH WIND       PRES   REMARKS
REDMOND        CLOUDY    40  27  59 SE6       30.20F
BEND           MOCLDY    41  28  60 SW10      30.20F
PRINEVILLE     CLOUDY    39  30  70 CALM      30.22F
KLAMATH FALLS  CLOUDY    36  28  73 SE3       30.31S
LAKEVIEW       CLOUDY    30  21  69 CALM      30.32R
HERMISTON      CLOUDY    46  35  65 VRB5      30.16F
PENDLETON      CLOUDY    45  30  55 S10       30.16F
JOHN DAY       CLOUDY    36  28  75 E5        30.25F WCI  32
MEACHAM        CLOUDY    33  27  78 CALM      30.17F
LA GRANDE      CLOUDY    36  21  55 S12       30.23F WCI  27
BAKER CITY     CLOUDY    31  26  82 CALM      30.26S
BURNS          CLOUDY    32  24  72 S6        30.29S WCI  26
ROME             N/A     35  18  49 S5        30.28F WCI  31
ONTARIO        CLOUDY    37  27  67 E6        30.36R WCI  32
$$




USA.gov is the U.S. government's official web portal to all federal, state and local government web resources and services.